RH
77 62 34 32 31 30 28 28 24 21 17 29 31 28 26 25 23 22 28 23 21 17 20 29 32 27 25 24 26 21 18 19 18 19 15 17 14 12 14 14 11 14 15 23 17
70 54 41 29 31 28 27 27 26 19 18 30 31 28 26 24 22 29 24 20 16 16 28 24 17 18 17 22 21 18 18 14 12 10 11 11 14 13 13 11 10 11 14 19 22
54 44 31 21 29 30 25 27 26 18 19 31 30 27 25 23 26 20 22 20 17 16 27 19 17 16 16 18 18 16 15 13 11 12 12 15 15 15 14 13 16 18 17 18 20
48 31 31 25 30 30 30 31 23 19 18 31 30 27 25 23 24 21 19 19 18 16 24 19 17 16 16 16 16 16 13 14 15 18 18 16 17 15 15 16 19 19 20 21 20
42 23 29 26 29 31 30 28 23 20 19 32 30 27 25 31 23 20 20 20 19 17 20 18 18 17 16 13 15 16 13 14 15 17 18 17 17 16 17 18 18 22 24 25 26
28 22 27 29 30 30 28 29 24 21 20 33 30 28 30 27 22 20 22 21 24 20 19 19 18 18 17 16 16 16 15 14 14 14 15 18 15 19 16 17 18 21 24 27 30
29 22 23 25 25 30 30 25 24 21 20 32 29 28 36 26 23 21 23 24 23 21 20 21 20 19 18 16 17 16 16 11 12 16 16 18 17 18 17 17 17 18 22 28 30
27 26 25 24 29 26 29 27 24 20 22 32 30 29 31 25 24 22 22 21 20 21 22 20 21 21 19 20 16 15 13 15 14 14 18 18 14 14 16 15 17 18 20 25 29
26 28 27 28 30 29 28 25 22 17 25 33 32 37 27 24 23 25 24 22 23 23 21 20 22 21 21 17 14 14 12 14 15 14 14 15 13 14 17 17 16 17 19 23 27
27 32 31 32 28 27 25 24 21 28 33 32 32 34 27 25 24 24 24 23 23 24 24 23 21 20 17 15 17 13 13 12 14 15 14 15 15 13 16 18 15 17 19 23 29
30 33 33 32 27 25 22 21 33 31 27 34 29 27 23 25 24 24 25 24 23 23 23 22 23 21 12 12 12 15 14 14 12 15 19 17 16 14 16 19 16 17 20 24 31
32 32 33 31 24 24 19 30 25 31 31 25 27 31 27 24 23 24 24 23 23 24 20 23 24 16 14 16 17 16 17 16 13 16 20 16 17 17 19 18 17 17 20 26 29
33 31 30 29 27 22 19 20 23 31 32 26 29 29 28 26 22 22 24 22 22 24 22 24 16 17 17 19 20 18 17 15 17 16 17 20 20 22 19 19 19 18 22 25 28
36 35 37 33 34 28 18 16 28 33 33 25 31 29 28 25 22 21 23 21 20 20 19 17 16 19 19 18 17 18 15 16 18 21 19 18 18 23 21 22 22 22 25 25 28
39 40 39 31 43 41 26 22 32 39 46 20 26 29 26 24 24 23 23 22 20 19 18 18 21 23 22 18 16 19 20 20 22 22 20 18 23 10 19 21 21 21 22 28 31
41 39 43 38 38 40 32 32 35 39 43 26 24 26 26 25 23 26 25 23 21 18 18 17 20 17 17 19 18 22 22 24 24 22 25 15 19 18 20 18 18 18 22 28 31
46 38 41 29 38 36 33 37 40 39 21 31 29 26 24 25 24 22 24 25 24 28 26 20 20 18 20 21 23 23 21 24 25 30 22 22 24 15 15 14 14 17 21 27 31
50 45 38 23 33 39 40 33 38 21 21 25 26 26 27 24 23 23 24 26 22 20 20 23 26 20 21 19 18 24 20 21 23 16 17 24 24 18 15 16 16 16 19 25 30
69 52 40 26 36 42 41 42 31 18 17 28 27 31 30 26 24 24 24 24 20 20 22 18 22 24 22 20 20 24 27 19 20 19 21 12 15 18 17 19 19 18 19 24 29
61 46 45 33 42 53 47 39 23 22 25 25 26 24 30 29 28 26 22 18 19 17 16 16 26 25 26 23 24 25 20 24 19 22 24 17 18 16 22 20 20 20 20 24 28
70 53 52 40 47 56 49 35 26 28 29 26 24 26 23 26 24 27 21 22 18 21 18 17 19 30 26 27 24 26 24 22 22 21 21 19 16 13 13 16 19 19 22 24 30
65 45 53 48 50 46 45 30 28 28 31 29 27 24 24 24 25 23 21 22 22 25 25 18 19 24 23 23 22 22 19 18 21 21 22 26 21 14 15 15 17 19 22 25 32
54 84 69 57 49 41 38 33 34 31 29 28 28 26 23 26 29 23 25 29 28 25 21 20 21 25 27 27 24 24 20 20 18 23 21 23 19 19 18 17 19 20 23 30 39
56 67 79 69 42 34 42 41 44 37 27 26 25 25 26 26 26 29 28 34 30 27 27 24 23 22 20 21 20 25 23 22 22 22 20 20 18 15 18 20 20 22 26 33 42
49 39 48 60 50 43 37 40 47 41 33 26 29 24 24 26 27 24 26 36 35 35 27 24 28 21 19 19 21 20 20 22 24 21 23 18 17 14 14 16 19 22 25 33 41
48 61 57 42 41 45 46 40 48 42 32 31 29 25 23 23 23 23 24 25 25 36 29 29 28 28 27 22 27 28 24 23 21 23 22 20 21 15 16 20 19 20 26 33 40
69 62 41 45 43 50 44 36 36 36 34 28 28 27 28 25 20 28 25 24 23 25 29 32 28 31 30 29 34 36 31 27 23 20 22 27 20 21 23 28 27 26 29 36 40
Wind_Speed
14 13 9 6 7 8 9 8 5 7 7 7 6 6 6 6 6 6 5 4 6 5 4 4 3 3 2 2 1 2 6 7 6 5 5 2 5 5 8 12 13 8 9 5 12
17 15 12 9 9 10 10 8 7 6 8 7 7 7 6 6 7 10 9 8 6 6 6 4 3 3 5 4 3 6 6 5 5 5 4 3 6 10 10 13 12 9 5 6 8
19 17 15 12 11 11 12 10 7 5 8 9 8 7 6 5 5 9 12 9 7 7 5 3 2 3 3 4 6 3 8 5 5 6 6 7 9 6 9 10 6 8 11 9 9
20 18 16 15 11 11 11 8 8 6 9 11 8 7 5 3 5 4 12 11 9 7 6 4 3 4 4 5 3 7 6 6 5 3 5 7 5 9 11 10 6 6 9 10 11
19 17 14 13 12 13 11 9 8 7 9 11 9 7 5 6 10 5 10 14 10 8 7 5 5 3 5 3 5 9 8 4 6 8 9 9 13 10 7 2 4 4 6 7 7
20 18 16 13 14 14 10 8 9 9 10 10 10 7 4 11 7 9 7 15 10 9 7 5 4 4 7 6 6 4 6 11 9 10 7 5 6 2 6 2 1 3 5 6 7
20 19 17 14 13 12 10 10 8 10 11 10 9 7 8 11 6 10 8 11 10 8 7 4 3 4 3 5 5 7 10 9 7 2 3 4 9 8 5 2 1 3 6 9 9
20 18 16 15 13 12 9 9 9 10 12 10 7 5 8 9 16 10 12 11 11 8 6 6 3 3 5 2 7 8 7 8 10 4 4 3 1 10 5 3 3 4 7 9 12
20 17 17 18 15 15 13 9 10 11 10 8 4 4 11 9 13 12 13 9 8 6 7 5 2 5 4 8 9 8 9 4 5 3 1 7 5 12 8 1 5 6 7 9 12
21 18 18 18 16 14 6 6 7 8 10 7 7 4 15 12 11 15 14 12 8 8 5 5 6 8 7 8 9 5 5 4 8 6 5 10 13 9 10 8 10 9 9 9 12
21 19 18 18 19 17 11 6 7 2 11 10 5 14 7 8 14 13 15 14 10 12 11 9 8 10 9 9 9 7 9 10 7 5 4 9 6 8 6 12 16 13 11 11 13
22 19 18 19 21 17 16 9 9 3 7 23 27 14 18 7 9 12 15 16 13 14 14 4 13 14 4 6 8 10 10 11 6 2 4 10 9 1 6 14 17 16 14 13 15
23 22 22 22 20 20 21 19 12 12 6 13 32 32 17 13 15 17 19 20 12 16 14 15 1 7 2 5 9 11 11 10 7 3 11 10 10 8 9 9 10 14 13 13 14
24 24 23 20 17 20 24 21 10 9 5 11 9 14 22 12 13 9 18 11 9 12 13 10 2 4 7 9 7 10 3 9 8 6 4 5 3 13 16 15 16 15 15 14 14
25 25 23 22 8 19 14 21 17 2 5 8 9 5 12 23 8 10 13 11 12 9 6 3 7 6 8 8 5 2 2 3 6 9 9 13 5 10 18 17 17 19 19 17 15
26 26 25 26 13 12 15 21 18 5 8 7 7 9 12 21 9 6 10 6 4 9 8 8 2 4 2 4 2 5 3 5 6 7 7 8 7 11 15 19 19 21 20 19 18
29 26 28 24 13 11 18 21 7 9 2 6 6 9 15 11 13 10 13 15 11 9 13 13 14 5 7 6 4 7 7 4 6 5 2 3 4 8 9 13 19 22 23 22 18
30 28 27 28 20 14 22 13 12 6 7 5 5 9 14 11 12 11 12 15 19 14 6 10 7 18 13 13 10 11 12 7 5 3 2 4 5 2 2 4 5 24 23 22 20
30 30 27 27 24 19 17 15 13 4 6 10 9 10 8 9 4 11 14 14 15 15 10 7 6 4 2 3 4 7 8 2 6 3 4 6 4 8 7 8 9 14 24 23 21
32 30 28 31 27 24 11 20 17 2 3 10 9 11 13 13 9 11 12 10 12 16 20 4 3 4 4 3 2 4 2 3 6 4 5 5 5 5 10 13 13 18 22 22 20
24 14 18 28 25 15 14 20 5 4 5 7 8 8 8 10 13 10 5 2 14 10 17 5 5 5 5 9 9 5 4 6 4 3 4 5 3 4 2 10 15 21 25 23 19
20 7 21 31 15 20 15 21 6 7 6 3 2 3 8 10 11 10 9 1 8 12 8 10 4 5 5 3 2 5 10 12 7 5 5 3 8 2 1 6 12 17 21 18 16
20 6 26 31 12 14 16 16 6 7 6 5 5 4 2 7 6 9 5 3 7 9 9 9 7 7 4 3 4 6 9 9 9 4 12 8 5 3 1 7 13 17 18 16 16
17 5 7 20 26 21 20 18 9 9 4 6 3 4 5 4 3 7 5 2 5 6 2 4 3 10 7 4 5 5 10 12 13 10 11 14 19 11 7 9 14 19 19 19 17
20 9 17 13 18 11 21 13 16 8 8 10 4 10 7 5 6 4 5 4 3 4 4 4 6 11 12 4 5 8 9 12 16 17 15 18 18 17 15 8 16 20 17 19 18
16 6 12 15 31 17 18 18 22 21 14 10 10 13 10 12 7 7 8 6 5 6 6 3 4 3 12 7 8 11 11 16 18 19 20 20 23 19 18 14 11 18 20 20 18
14 12 17 17 20 16 18 20 19 18 17 14 13 7 10 11 7 4 4 2 1 4 10 5 5 5 12 2 7 10 18 22 22 20 15 17 19 8 8 5 8 14 17 18 18
Wind_Direction
251 251 252 254 255 251 256 251 251 269 242 227 246 257 267 271 264 244 240 245 204 180 149 168 182 207 176 181 205 263 255 250 246 252 268 85 269 278 295 285 283 266 280 313 290
262 259 249 239 247 262 256 250 252 259 244 228 248 256 269 277 273 252 230 208 184 165 151 184 201 211 198 190 204 243 248 277 353 305 271 280 283 303 298 292 273 262 274 295 302
257 264 264 246 237 234 240 244 252 246 242 237 244 253 267 290 298 231 216 196 182 166 188 200 194 247 223 233 200 191 253 19 274 286 299 292 287 286 284 285 35 319 303 294 287
252 257 245 243 237 241 249 242 250 241 231 243 242 248 257 254 226 205 200 197 187 173 181 196 226 239 270 243 213 258 237 273 299 312 283 279 310 279 280 284 328 307 304 300 294
247 249 245 247 234 233 235 235 245 236 227 240 243 242 250 242 252 265 202 197 193 184 202 222 262 288 264 267 259 246 285 293 271 275 267 281 272 275 271 291 330 336 334 325 316
242 243 252 230 229 229 221 233 238 243 225 234 245 244 251 245 239 245 216 200 193 195 209 230 287 297 294 272 260 3 282 276 274 273 264 246 260 250 151 322 2 7 16 13 12
242 238 240 238 220 217 205 233 238 244 224 230 242 251 250 225 272 231 209 185 200 202 215 235 261 272 320 270 264 277 280 273 248 227 192 215 236 228 140 146 102 63 56 47 41
235 231 228 227 217 229 209 224 232 235 225 228 245 255 251 244 242 233 202 194 195 200 191 225 240 261 266 290 253 262 251 264 138 194 149 216 32 139 148 166 141 95 73 63 56
227 223 214 220 206 204 202 212 211 231 227 231 250 228 255 245 233 219 198 189 177 171 203 216 202 269 242 245 260 208 280 233 166 172 196 228 314 158 191 42 174 132 101 83 67
220 215 208 209 215 213 196 211 218 197 211 234 244 262 253 240 216 200 198 184 176 173 165 205 238 250 225 239 252 324 250 229 273 140 231 253 260 215 197 248 209 159 127 99 79
217 208 204 201 208 205 178 194 218 249 231 194 235 212 341 221 220 198 201 185 193 204 225 197 250 245 251 229 283 295 279 274 275 94 286 259 252 264 270 229 189 165 143 116 97
212 203 201 202 205 199 185 201 206 144 281 238 239 258 252 222 207 196 186 189 199 219 221 205 245 258 25 291 250 252 256 265 269 124 257 274 264 7 219 186 178 169 151 135 123
204 198 197 202 194 199 197 195 202 219 262 254 223 231 234 228 233 195 184 208 213 228 216 242 19 89 164 223 227 238 252 268 283 297 244 273 254 176 163 163 165 175 157 148 138
201 196 193 190 193 201 206 197 184 193 260 222 194 230 221 213 238 212 194 192 213 230 220 245 151 210 240 249 238 268 321 268 269 261 281 212 310 189 178 184 189 182 173 157 150
199 196 191 189 192 186 205 182 180 132 256 114 149 187 203 199 132 182 184 204 219 200 194 162 181 192 229 251 225 259 58 240 258 264 290 236 249 241 172 190 192 186 181 171 165
197 194 184 188 189 180 180 174 176 220 242 171 154 186 176 205 190 140 185 208 254 238 227 264 53 217 291 103 183 124 202 235 255 257 251 247 226 173 190 201 190 190 184 178 173
191 192 192 183 184 188 171 155 187 230 120 163 191 183 195 180 185 186 184 195 196 205 227 228 219 183 186 184 176 211 254 244 210 198 288 112 212 288 188 204 198 191 189 185 182
186 186 190 184 179 178 171 194 217 197 190 118 171 181 197 167 199 194 198 206 215 226 283 207 205 204 198 220 242 208 231 267 288 279 60 165 233 102 132 161 235 190 194 190 186
180 179 186 189 178 177 184 209 219 216 156 155 149 169 192 198 220 188 205 211 201 206 217 203 181 120 237 164 221 163 216 2 283 244 261 236 220 158 164 189 205 205 194 193 193
176 177 190 186 178 178 203 225 225 82 148 177 182 193 195 189 194 199 193 223 214 211 227 246 154 192 125 190 207 271 44 187 216 257 248 199 266 248 193 204 198 198 199 195 197
166 155 190 184 175 189 214 220 204 192 221 199 215 182 204 180 200 194 196 144 204 189 214 248 258 134 166 206 185 182 224 238 302 272 288 289 261 86 239 199 201 201 198 197 194
165 179 171 179 177 209 215 215 200 193 197 228 276 242 192 189 195 210 215 156 178 167 182 206 278 186 197 100 339 290 246 220 243 201 240 291 276 167 308 200 201 200 196 191 191
169 115 168 173 200 202 209 210 201 194 196 191 196 230 182 183 191 203 193 88 168 179 184 172 221 194 174 180 193 225 216 243 258 285 256 272 258 68 214 201 199 197 187 189 181
164 137 156 195 212 201 192 205 205 209 225 212 155 158 172 183 181 180 166 123 174 202 247 193 239 242 248 55 105 187 213 217 223 252 253 245 266 265 212 218 211 214 197 196 186
188 185 180 188 207 221 190 188 197 190 224 197 189 218 198 175 187 176 145 133 159 195 203 230 242 241 265 282 256 261 233 218 225 241 254 266 277 281 302 276 225 223 213 201 194
187 160 175 168 188 194 183 205 190 210 174 198 227 202 212 229 215 197 184 185 188 179 193 195 248 277 260 257 261 262 249 251 251 247 258 263 270 282 299 293 247 241 207 207 199
197 165 173 164 182 189 199 204 204 197 218 229 208 205 214 229 256 51 75 28 336 190 193 188 221 237 265 345 290 270 238 240 247 246 247 255 262 318 291 270 253 254 192 199 202